• în România
  • Lista ţărilor
  • Pe 7 zile
  • Temperatura apei
  • Hartă satelitară
  • Meteo pe hartă
  • Widget-uri
  • user-avatar
    Intrare

    Meteo pe oră la Graz

    Astăzi, 23 August, Miercuri

    Timp Temperatura Precipitaţii Vânt Presiune Umiditate
    00:00 +13°C° 0 mm 1 m/s 726 mmHg 79%
    01:00 +13°C° 0 mm 1 m/s 726 mmHg 79%
    02:00 +12°C° 0 mm 1 m/s 726 mmHg 81%
    03:00 +12°C° 0 mm 1 m/s 726 mmHg 82%
    04:00 +12°C° 0 mm 1 m/s 726 mmHg 84%
    05:00 +13°C° 0 mm 1 m/s 726 mmHg 80%
    06:00 +15°C° 0 mm 1 m/s 726 mmHg 76%
    07:00 +15°C° 0 mm 0 m/s 727 mmHg 69%
    08:00 +17°C° 0 mm 0 m/s 727 mmHg 62%
    09:00 +22°C° 0 mm 1 m/s 727 mmHg 55%
    10:00 +24°C° 0 mm 1 m/s 727 mmHg 48%
    11:00 +24°C° 0 mm 1 m/s 727 mmHg 47%
    12:00 +25°C° 0 mm 1 m/s 727 mmHg 45%
    13:00 +26°C° 0 mm 1 m/s 726 mmHg 43%
    14:00 +26°C° 0 mm 1 m/s 726 mmHg 44%
    15:00 +26°C° 0 mm 1 m/s 726 mmHg 45%
    16:00 +26°C° 0 mm 1 m/s 726 mmHg 46%
    17:00 +24°C° 0 mm 1 m/s 726 mmHg 53%
    18:00 +22°C° 0 mm 1 m/s 726 mmHg 61%
    19:00 +18°C° 0 mm 0 m/s 726 mmHg 68%
    20:00 +19°C° 0 mm 1 m/s 726 mmHg 71%
    21:00 +18°C° 0 mm 1 m/s 726 mmHg 75%
    22:00 +16°C° 0 mm 1 m/s 726 mmHg 78%
    23:00 +15°C° 0 mm 1 m/s 726 mmHg 79%

    Mâine, 24 August, Joi

    Timp Temperatura Precipitaţii Vânt Presiune Umiditate
    00:00 +15°C° 0 mm 1 m/s 726 mmHg 81%
    01:00 +15°C° 0 mm 1 m/s 726 mmHg 82%
    02:00 +14°C° 0 mm 1 m/s 726 mmHg 83%
    03:00 +14°C° 0 mm 1 m/s 726 mmHg 84%
    04:00 +14°C° 0 mm 1 m/s 726 mmHg 84%
    05:00 +15°C° 0 mm 1 m/s 726 mmHg 80%
    06:00 +18°C° 0 mm 1 m/s 726 mmHg 76%
    07:00 +17°C° 0 mm 0 m/s 727 mmHg 71%
    08:00 +22°C° 0 mm 1 m/s 727 mmHg 62%
    09:00 +25°C° 0 mm 1 m/s 727 mmHg 54%
    10:00 +28°C° 0 mm 1 m/s 727 mmHg 45%
    11:00 +29°C° 0 mm 1 m/s 727 mmHg 42%
    12:00 +30°C° 0 mm 1 m/s 727 mmHg 39%
    13:00 +32°C° 0 mm 1 m/s 727 mmHg 35%
    14:00 +31°C° 0 mm 1 m/s 727 mmHg 36%
    15:00 +31°C° 0 mm 1 m/s 727 mmHg 38%
    16:00 +31°C° 0 mm 1 m/s 726 mmHg 39%
    17:00 +28°C° 0 mm 1 m/s 726 mmHg 48%
    18:00 +26°C° 0 mm 1 m/s 726 mmHg 58%
    19:00 +23°C° 0 mm 1 m/s 726 mmHg 67%
    20:00 +22°C° 0 mm 1 m/s 726 mmHg 70%
    21:00 +22°C° 0 mm 1 m/s 726 mmHg 72%
    22:00 +21°C° 0 mm 1 m/s 727 mmHg 74%
    23:00 +20°C° 0 mm 1 m/s 727 mmHg 76%

    Poimâine, 25 August, Vineri

    Timp Temperatura Precipitaţii Vânt Presiune Umiditate
    00:00 +20°C° 0 mm 1 m/s 727 mmHg 77%
    01:00 +20°C° 0 mm 1 m/s 726 mmHg 79%
    02:00 +19°C° 0 mm 1 m/s 726 mmHg 80%
    03:00 +19°C° 0 mm 1 m/s 726 mmHg 81%
    04:00 +19°C° 0 mm 1 m/s 726 mmHg 83%
    05:00 +20°C° 0 mm 1 m/s 726 mmHg 80%
    06:00 +21°C° 0 mm 1 m/s 727 mmHg 76%
    07:00 +22°C° 0 mm 1 m/s 727 mmHg 73%
    08:00 +25°C° 0 mm 1 m/s 727 mmHg 64%
    09:00 +27°C° 0 mm 1 m/s 727 mmHg 55%
    10:00 +28°C° 0 mm 0 m/s 728 mmHg 45%
    11:00 +31°C° 0 mm 1 m/s 727 mmHg 42%
    12:00 +32°C° 0 mm 1 m/s 727 mmHg 39%
    13:00 +33°C° 0 mm 1 m/s 727 mmHg 37%
    14:00 +32°C° 0 mm 1 m/s 727 mmHg 38%
    15:00 +32°C° 0 mm 1 m/s 727 mmHg 39%
    16:00 +31°C° 0 mm 1 m/s 726 mmHg 40%
    17:00 +29°C° 0 mm 1 m/s 726 mmHg 49%
    18:00 +27°C° 0 mm 1 m/s 726 mmHg 57%
    19:00 +22°C° 0 mm 0 m/s 726 mmHg 65%
    20:00 +23°C° 0,1 mm 1 m/s 726 mmHg 68%
    21:00 +23°C° 0,1 mm 1 m/s 726 mmHg 71%
    22:00 +22°C° 0,1 mm 1 m/s 726 mmHg 73%
    23:00 +21°C° 0 mm 1 m/s 726 mmHg 75%

    26 August, Sâmbătă

    Timp Temperatura Precipitaţii Vânt Presiune Umiditate
    00:00 +21°C° 0 mm 1 m/s 726 mmHg 76%
    01:00 +20°C° 0 mm 1 m/s 726 mmHg 77%
    02:00 +20°C° 0 mm 1 m/s 726 mmHg 78%
    03:00 +20°C° 0 mm 1 m/s 726 mmHg 79%
    04:00 +20°C° 0 mm 1 m/s 726 mmHg 79%
    05:00 +21°C° 0 mm 1 m/s 726 mmHg 77%
    06:00 +22°C° 0 mm 1 m/s 726 mmHg 74%
    07:00 +23°C° 0 mm 1 m/s 726 mmHg 71%
    08:00 +26°C° 0 mm 1 m/s 726 mmHg 62%
    09:00 +27°C° 0 mm 0 m/s 727 mmHg 53%
    10:00 +30°C° 0 mm 0 m/s 727 mmHg 43%
    11:00 +33°C° 0 mm 1 m/s 727 mmHg 40%
    12:00 +33°C° 0 mm 1 m/s 727 mmHg 37%
    13:00 +34°C° 0 mm 1 m/s 726 mmHg 33%
    14:00 +34°C° 0 mm 1 m/s 726 mmHg 34%
    15:00 +34°C° 0 mm 1 m/s 726 mmHg 36%
    16:00 +33°C° 0 mm 1 m/s 725 mmHg 37%
    17:00 +30°C° 0 mm 1 m/s 725 mmHg 45%
    18:00 +28°C° 0 mm 1 m/s 725 mmHg 52%
    19:00 +23°C° 0 mm 0 m/s 725 mmHg 60%
    20:00 +24°C° 0,3 mm 1 m/s 725 mmHg 63%
    21:00 +24°C° 0,3 mm 1 m/s 725 mmHg 66%
    22:00 +23°C° 0,3 mm 1 m/s 725 mmHg 68%
    23:00 +22°C° 0 mm 1 m/s 725 mmHg 69%

    27 August, Duminică

    Timp Temperatura Precipitaţii Vânt Presiune Umiditate
    00:00 +22°C° 0 mm 1 m/s 725 mmHg 70%
    01:00 +22°C° 0 mm 1 m/s 725 mmHg 72%
    02:00 +21°C° 0 mm 1 m/s 725 mmHg 72%
    03:00 +21°C° 0 mm 1 m/s 724 mmHg 72%
    04:00 +21°C° 0 mm 1 m/s 724 mmHg 73%
    05:00 +22°C° 0 mm 1 m/s 725 mmHg 71%
    06:00 +23°C° 0 mm 1 m/s 725 mmHg 69%
    07:00 +24°C° 0 mm 1 m/s 725 mmHg 68%
    08:00 +27°C° 0 mm 1 m/s 725 mmHg 58%
    09:00 +30°C° 0 mm 1 m/s 726 mmHg 49%
    10:00 +31°C° 0 mm 0 m/s 726 mmHg 40%
    11:00 +34°C° 0 mm 1 m/s 726 mmHg 37%
    12:00 +34°C° 0 mm 1 m/s 725 mmHg 33%
    13:00 +35°C° 0 mm 1 m/s 725 mmHg 30%
    14:00 +35°C° 0 mm 1 m/s 725 mmHg 31%
    15:00 +34°C° 0 mm 1 m/s 725 mmHg 32%
    16:00 +34°C° 0 mm 1 m/s 724 mmHg 33%
    17:00 +31°C° 0 mm 1 m/s 724 mmHg 41%
    18:00 +29°C° 0 mm 1 m/s 724 mmHg 48%
    19:00 +24°C° 0 mm 0 m/s 724 mmHg 56%
    20:00 +25°C° 0,1 mm 1 m/s 724 mmHg 59%
    21:00 +25°C° 0,1 mm 1 m/s 724 mmHg 61%
    22:00 +24°C° 0,1 mm 1 m/s 724 mmHg 64%
    23:00 +23°C° 0 mm 1 m/s 724 mmHg 66%

    28 August, Luni

    Timp Temperatura Precipitaţii Vânt Presiune Umiditate
    00:00 +23°C° 0 mm 1 m/s 724 mmHg 68%
    01:00 +22°C° 0 mm 1 m/s 723 mmHg 69%
    02:00 +22°C° 0 mm 1 m/s 724 mmHg 71%
    03:00 +22°C° 0 mm 1 m/s 724 mmHg 72%
    04:00 +21°C° 0 mm 1 m/s 724 mmHg 74%
    05:00 +22°C° 0,1 mm 1 m/s 724 mmHg 73%
    06:00 +23°C° 0,1 mm 1 m/s 725 mmHg 73%
    07:00 +24°C° 0,1 mm 1 m/s 725 mmHg 72%
    08:00 +26°C° 0,1 mm 1 m/s 725 mmHg 63%
    09:00 +29°C° 0,1 mm 1 m/s 726 mmHg 55%
    10:00 +31°C° 0,1 mm 1 m/s 726 mmHg 46%
    11:00 +32°C° 0 mm 1 m/s 726 mmHg 42%
    12:00 +33°C° 0 mm 1 m/s 726 mmHg 39%
    13:00 +35°C° 0 mm 1 m/s 726 mmHg 36%
    14:00 +33°C° 0 mm 1 m/s 726 mmHg 39%
    15:00 +32°C° 0 mm 1 m/s 725 mmHg 43%
    16:00 +31°C° 0 mm 1 m/s 725 mmHg 46%
    17:00 +29°C° 0,2 mm 1 m/s 725 mmHg 54%
    18:00 +27°C° 0,2 mm 1 m/s 725 mmHg 62%
    19:00 +25°C° 0,2 mm 1 m/s 725 mmHg 70%
    20:00 +24°C° 0,3 mm 1 m/s 726 mmHg 74%
    21:00 +23°C° 0,3 mm 1 m/s 726 mmHg 79%
    22:00 +22°C° 0,3 mm 1 m/s 726 mmHg 83%
    23:00 +21°C° 0,1 mm 1 m/s 726 mmHg 84%
    Arată mai mult